SL-14 DEB, 45357

Orbit data source: Space-Track

SL-14 DEB, 45357 is space debris in LEO originally from a launch on Thu, 15 Aug 1991 UTC launched from the Plesetsk Missile And Space Complex (PKMTR). Debris objects in space refer to the collection of defunct objects orbiting the Earth. Examples of debris include non-operational satellites, rocket bodies, and fragments generated from explosions, collisions, or faulty payload assembly.

Loading next visibility...
Identifier
45357, 1991-056CR
Orbit
LEO
Country
Flag of CISCIS
Related business
Manufacturer
Unknown
Mission
Spacecraft
Bus & Motor
Unknown
Mass
Unknown
Launch date (UTC)
1991-08-15 (35 years ago)
Launch vehicle
Unknown
Launch site
Plesetsk Missile And Space Complex (PKMTR)
Object type
Payload
Rocket body
Debris
Shape & HBR
Unknown shape, 0.1 m
Radar Cross Section
Small (<0.1 m²)

Expand to show TLE details & history
Last TLE update: 2 days ago

TLE from 2 days ago
0 SL-14 DEB
1 45357U 91056CR  26124.96566847  .00001157  00000-0  21593-2 0  9997
2 45357  82.5649 124.2992 0077378  18.4749 341.9166 13.37188973300489
Epoch: 2026-05-04T23:10Z
TLE epoch observation values (Epoch: 2026-05-04T23:10:33.755Z)
Latitude
-0.00008°
Longitude
-86.18875°
Altitude
1,067.487 km
Speed
7.345 km/s
True Right ascension
08h 17m 11s
True Declination
0° 00' 00"
Sunlit
Object was in daylight at epoch
Visualization orbit readout
Latitude
Unknown
Longitude
Unknown
Altitude
Unknown
Speed
Unknown
Apparent Right ascension
Unknown
Apparent Declination
Unknown
Sunlit
N/A
Visualization observer readout
Local Sidereal Time
10:08:48
Azimuth
Unknown
Elevation
Unknown
Doppler factor
Unknown
Orbital elements
Apogee altitude
1,174.98 km
Perigee altitude
1,058.989 km
Semi-major axis
7,495.122 km
Eccentricity
0.00774
Inclination
82.5649°
RAAN
124.2992°
Arg. of periapsis
18.4749°
True anomaly
341.63882°
Mean anomaly
341.9166°
Eccentric anomaly
341.77797°
Mean motion
3.34484 °/min
Orbital period
107.63 mins
BSTAR
0.0021593
Loading maneuver chart data...
Computing Atmospheric mass density...
Loading historical data...
Loading historical data...
Loading historical data...
Loading historical data...
Loading historical data...
Loading historical data...
Loading historical data...

Documentation

Showing up to 5 results
|